[[{"header":{"parameterUnit":"m.s-1","parameterCategory":1,"la1":30.2991,"la2":30.254,"lo1":-89.0895,"lo2":-89.0444,"dy":0.0017,"dx":0.0017,"nx":28,"ny":28,"refTime":"2023-09-27T03:00:00:Z","depth":0,"parameterNumber":2,"parameterNumberName":"U-component_of_WINDS"},"data":[0,0,0,0,0,0,0,0,0,0,0,0,0,0,0,0,0,0,0,0,0,0,0,0,0,0,0,0,0,0,0,0,0,0,0,0,0,0,0,0,0,0,0,0,0,0,0,0,0,0,0,0,0,0,0,0,0,0,-6.6446,-6.6445,0,-6.6404,-6.6403,-6.6403,-6.6223,-6.6219,-6.6215,-6.6211,-6.6171,-6.6173,-6.6176,0,0,0,0,0,0,0,0,0,0,0,0,0,-6.6373,-6.6376,-6.6446,-6.6445,-6.6445,-6.6404,-6.6403,-6.6403,-6.6224,-6.6219,-6.6214,-6.6209,-6.617,-6.6173,-6.6176,0,0,0,0,0,0,0,0,0,0,0,0,0,-6.6376,-6.6376,-6.6446,-6.6351,-6.6342,-6.6404,-6.6403,-6.6403,-6.6225,-6.6219,-6.6212,-6.6207,-6.6169,-6.6173,-6.6177,-6.6329,0,0,-6.619,-6.6192,0,0,0,0,0,0,0,0,-6.6376,-6.6379,-6.6365,-6.6357,-6.6347,-6.6312,-6.6363,-6.6378,-6.6227,-6.6269,-6.6211,-6.6203,-6.6223,-6.6222,-6.6228,-6.6327,-6.6325,-6.619,-6.6193,-6.6195,-6.6196,0,0,0,0,0,0,0,-6.6376,-6.6379,-6.6429,-6.6365,-6.6354,-6.6311,-6.6304,-6.6365,-6.6282,-6.6265,-6.6252,-6.6249,-6.6217,-6.6225,-6.6226,-6.6325,-6.619,-6.6194,-6.6197,-6.6198,-6.6545,-6.6551,0,0,0,0,0,0,-6.6389,-6.638,-6.6431,-6.6428,-6.6346,-6.6317,-6.631,-6.633,-6.6281,-6.6267,-6.6255,-6.6241,-6.6221,-6.6221,-6.6224,-6.6397,-6.6195,-6.6199,-6.6201,-6.6538,-6.6547,-6.6554,0,0,0,0,0,0,-6.6388,-6.6395,-6.6432,-6.6401,-6.6402,-6.6325,-6.6349,-6.6332,-6.634,-6.6273,-6.6257,-6.6278,-6.6216,-6.6218,-6.6304,-6.6393,-6.6201,-6.6204,-6.6531,-6.6541,-6.655,-6.6747,0,0,0,0,0,0,-6.6387,-6.6396,-6.6452,-6.6403,-6.6404,-6.6513,-6.6355,-6.6336,-6.6347,-6.6329,-6.629,-6.6278,-6.6211,-6.6298,-6.6308,-6.6396,-6.6208,-6.6522,-6.6535,-6.6547,-6.6732,-6.6762,-6.6788,0,0,0,0,0,-6.6385,-6.651,-6.6456,-6.6463,-6.6473,-6.6518,-6.6519,-6.6438,-6.6355,-6.6411,-6.6369,-6.6279,-6.6383,-6.6309,-6.6318,-6.6409,-6.6516,-6.6532,-6.6546,-6.6719,-6.6756,-6.6787,0,0,0,0,0,0,-6.6572,-6.6502,-6.6441,-6.6554,-6.6543,-6.6487,-6.6556,-6.648,-6.6493,-6.6476,-6.6376,-6.6369,-6.6469,-6.6447,-6.6366,-6.6553,-6.6434,-6.6452,-6.6563,-6.6597,-6.6625,-6.6627,-6.6211,0,0,0,0,0,-6.6627,-6.6668,-6.6605,-6.6711,-6.6708,-6.6634,-6.665,-6.6589,-6.6574,-6.6569,-6.6532,-6.6522,-6.6552,-6.6574,-6.6598,-6.6729,-6.6717,-6.6795,-6.6824,-6.6847,-6.6863,-6.693,-6.6963,-6.6603,-6.6603,-6.6603,0,0,-6.674,-6.6706,-6.6739,-6.6748,-6.6732,-6.6777,-6.6631,-6.6686,-6.6718,-6.6577,-6.6655,-6.6629,-6.6611,-6.672,-6.6766,-6.6704,-6.696,-6.6866,-6.6885,-6.6888,-6.6949,-6.6983,-6.7013,-6.6613,-6.6611,-6.661,0,0,-6.6968,-6.6948,-6.7033,-6.702,-6.6998,-6.6948,-6.6969,-6.6925,-6.6901,-6.6978,-6.6872,-6.6911,-6.6965,-6.6956,-6.6959,-6.7185,-6.7103,-6.7196,-6.7343,-6.7409,-6.7437,-6.7462,-6.7542,-6.7571,-6.7213,-6.7213,-6.7214,0,-6.7112,-6.7175,-6.7087,-6.7148,-6.7154,-6.7029,-6.7114,-6.7107,-6.7095,-6.7103,-6.7034,-6.7099,-6.7078,-6.7183,-6.7238,-6.7245,-6.7265,-6.7199,-6.744,-6.7464,-6.7486,-6.7561,-6.7591,-6.7225,-6.7223,-6.7222,-6.7221,0,-6.7352,-6.7398,-6.7469,-6.7459,-6.7474,-6.7548,-6.7471,-6.7497,-6.7436,-6.7393,-6.7473,-6.7444,-6.7459,-6.748,-6.7421,-6.7576,-6.7539,-6.7458,-6.7336,-6.7533,-6.7601,-6.7629,-6.7241,-6.7237,-6.7233,-6.723,0,0,-6.7695,-6.7636,-6.7663,-6.7657,-6.7624,-6.7658,-6.7726,-6.774,-6.7764,-6.7761,-6.7815,-6.7864,-6.7788,-6.7792,-6.7731,-6.7789,-6.7969,-6.77,-6.7698,-6.775,-6.8138,-6.8198,-6.8233,-6.7916,-6.7921,-6.7925,-6.8139,0,-6.7912,-6.8023,-6.7946,-6.807,-6.8111,-6.7993,-6.8052,-6.8039,-6.8002,-6.8032,-6.799,-6.8026,-6.7924,-6.7925,-6.7978,-6.7936,-6.8046,-6.792,-6.7965,-6.7968,-6.7971,-6.8268,-6.8332,-6.8535,-6.8165,-6.817,-6.8173,0,-6.8178,-6.8185,-6.8314,-6.8271,-6.8286,-6.8341,-6.8347,-6.8377,-6.836,-6.8329,-6.8334,-6.8257,-6.8322,-6.8205,-6.8292,-6.8209,-6.8223,-6.8206,-6.8212,-6.8211,-6.8081,-6.8274,-6.8598,-6.8628,-6.8215,-6.8211,-6.8208,0,-6.8414,-6.8456,-6.8537,-6.8536,-6.849,-6.8531,-6.8513,-6.849,-6.8503,-6.851,-6.8518,-6.8533,-6.8541,-6.8555,-6.8485,-6.8406,-6.8582,-6.8459,-6.8557,-6.8559,-6.8598,-6.8596,-6.8927,-6.8611,-6.8611,-6.861,-6.861,0,-6.8662,-6.8745,-6.8642,-6.8693,-6.8782,-6.8694,-6.8785,-6.8755,-6.8736,-6.8779,-6.8679,-6.8722,-6.8628,-6.8661,-6.8608,-6.8688,-6.8693,-6.867,-6.8654,-6.8677,-6.868,-6.8684,-6.8667,-6.8618,-6.8616,-6.8615,-6.8613,0,-6.894,-6.8874,-6.8955,-6.8905,-6.8894,-6.8962,-6.8919,-6.8964,-6.892,-6.8976,-6.8984,-6.8916,-6.895,-6.8882,-6.8908,-6.8872,-6.8985,-6.8948,-6.899,-6.8978,-6.908,-6.9071,-6.9423,-6.9464,-6.9125,-6.9128,-6.9131,0,-6.9101,-6.9162,-6.9118,-6.9139,-6.9127,-6.9162,-6.9175,-6.9091,-6.9109,-6.9094,-6.9141,-6.9167,-6.9182,-6.9243,-6.9196,-6.9216,-6.9178,-6.93,-6.918,-6.9201,-6.9177,-6.9174,-6.9179,-6.9324,-6.9328,-6.9331,-6.9334,0,-6.9395,-6.9359,-6.9381,-6.9392,-6.941,-6.9415,-6.9413,-6.9436,-6.9347,-6.9372,-6.9405,-6.9418,-6.9444,-6.947,-6.9479,-6.9462,-6.9384,-6.9373,-6.9396,-6.9419,-6.9441,-6.9429,-6.9055,-6.9364,-6.9361,-6.9359,-6.9358,-6.9356,-6.9617,-6.9665,-6.9641,-6.9669,-6.9659,-6.9659,-6.9698,-6.9659,-6.9685,-6.9698,-6.9648,-6.9693,-6.9675,-6.9677,-6.9669,-6.9704,-6.9649,-6.9684,-6.9692,-6.9701,-6.9717,-6.9437,-6.9705,-6.9704,-6.9703,-6.9703,-6.9702,0,-6.9904,-6.9883,-6.9909,-6.9908,-6.9931,-6.9855,-6.9849,-6.9872,-6.9912,-6.9902,-6.9919,-6.9958,-6.9984,-6.994,-6.9958,-6.9994,-6.9959,-7.0002,-6.9997,-6.9995,-6.9765,-6.9742,-7.003,-7.003,-7.003,-7.003,-7.003,-7.003,-7.0055,-7.0132,-7.0094,-7.0165,-7.0143,-7.0185,-7.0188,-7.0188,-7.0179,-7.0226,-7.0246,-7.0217,-7.0193,-7.0209,-7.023,-7.0216,-7.0227,-7.0283,-7.0257,-7.0043,-7.0011,-6.998,-6.9958,-7.0286,-7.0287,-7.0483,-7.0485,-7.0486]},{"header":{"parameterUnit":"m.s-1","parameterCategory":1,"la1":30.2991,"la2":30.254,"lo1":-89.0895,"lo2":-89.0444,"dy":0.0017,"dx":0.0017,"nx":28,"ny":28,"refTime":"2023-09-27T03:00:00:Z","depth":0,"parameterNumber":3,"parameterNumberName":"V-component_of_WINDS"},"data":[0,0,0,0,0,0,0,0,0,0,0,0,0,0,0,0,0,0,0,0,0,0,0,0,0,0,0,0,0,0,0,0,0,0,0,0,0,0,0,0,0,0,0,0,0,0,0,0,0,0,0,0,0,0,0,0,0,0,-2.6572,-2.6573,0,-2.6685,-2.6687,-2.6688,-2.6688,-2.6686,-2.6685,-2.6683,-2.6799,-2.6803,-2.6807,0,0,0,0,0,0,0,0,0,0,0,0,0,-2.6351,-2.6355,-2.6572,-2.6573,-2.6575,-2.6685,-2.6687,-2.6688,-2.6688,-2.6686,-2.6684,-2.6683,-2.6797,-2.6802,-2.6808,0,0,0,0,0,0,0,0,0,0,0,0,0,-2.6454,-2.6356,-2.6571,-2.6588,-2.659,-2.6685,-2.6687,-2.6689,-2.6688,-2.6686,-2.6684,-2.6682,-2.6795,-2.6802,-2.6809,-2.6894,0,0,-2.6829,-2.6832,0,0,0,0,0,0,0,0,-2.6448,-2.6462,-2.6584,-2.6587,-2.659,-2.667,-2.6651,-2.6758,-2.6689,-2.6651,-2.6683,-2.6681,-2.6758,-2.6767,-2.6793,-2.69,-2.6904,-2.683,-2.6834,-2.6836,-2.6838,0,0,0,0,0,0,0,-2.6441,-2.6457,-2.6617,-2.6586,-2.6589,-2.6588,-2.66,-2.6671,-2.6715,-2.6654,-2.6655,-2.6668,-2.6759,-2.6787,-2.6796,-2.6906,-2.6829,-2.6835,-2.6839,-2.6842,-2.7085,-2.7088,0,0,0,0,0,0,-2.6431,-2.6451,-2.6613,-2.662,-2.6512,-2.6594,-2.6608,-2.6647,-2.6715,-2.6723,-2.667,-2.6668,-2.6777,-2.6788,-2.68,-2.6903,-2.6836,-2.6843,-2.6846,-2.7083,-2.7086,-2.7088,0,0,0,0,0,0,-2.6426,-2.6445,-2.6608,-2.6536,-2.6556,-2.66,-2.6644,-2.665,-2.6678,-2.6726,-2.6734,-2.6691,-2.6775,-2.6791,-2.687,-2.6907,-2.6846,-2.6852,-2.708,-2.7084,-2.7087,-2.7111,0,0,0,0,0,0,-2.642,-2.6443,-2.6477,-2.6536,-2.656,-2.6678,-2.6646,-2.6654,-2.669,-2.6688,-2.6748,-2.6756,-2.6775,-2.686,-2.6877,-2.6916,-2.6857,-2.7077,-2.7082,-2.7086,-2.7108,-2.7116,-2.7122,0,0,0,0,0,-2.6412,-2.648,-2.6479,-2.6499,-2.6604,-2.668,-2.6693,-2.6714,-2.6693,-2.6727,-2.6757,-2.6754,-2.69,-2.6868,-2.6887,-2.6928,-2.7075,-2.708,-2.7086,-2.7104,-2.7114,-2.7122,0,0,0,0,0,0,-2.6425,-2.6488,-2.6488,-2.6578,-2.6623,-2.668,-2.6723,-2.6724,-2.6777,-2.6773,-2.6796,-2.6809,-2.6888,-2.6916,-2.6879,-2.7013,-2.6985,-2.6994,-2.6992,-2.7002,-2.7009,-2.7001,-2.6862,0,0,0,0,0,-2.6438,-2.6495,-2.6547,-2.6621,-2.6644,-2.668,-2.6714,-2.6725,-2.6774,-2.6793,-2.6829,-2.6875,-2.6932,-2.6968,-2.7023,-2.7111,-2.7123,-2.7148,-2.7156,-2.7162,-2.717,-2.7216,-2.7228,-2.7107,-2.7107,-2.7106,0,0,-2.6466,-2.6508,-2.6543,-2.6625,-2.6662,-2.6719,-2.6696,-2.6759,-2.6801,-2.6802,-2.6879,-2.6907,-2.696,-2.7044,-2.7082,-2.7069,-2.7205,-2.7169,-2.7173,-2.7178,-2.7223,-2.7235,-2.7245,-2.711,-2.711,-2.7109,0,0,-2.6546,-2.6584,-2.6649,-2.6686,-2.6742,-2.6765,-2.678,-2.6836,-2.6854,-2.6932,-2.6933,-2.6983,-2.7081,-2.7118,-2.7149,-2.724,-2.7239,-2.7257,-2.7296,-2.7341,-2.7351,-2.7359,-2.7391,-2.7402,-2.7265,-2.7265,-2.7265,0,-2.6574,-2.6662,-2.6682,-2.6745,-2.678,-2.6783,-2.6848,-2.6882,-2.6953,-2.6977,-2.6961,-2.7081,-2.7117,-2.7208,-2.723,-2.7256,-2.7273,-2.7251,-2.7348,-2.7357,-2.7365,-2.7395,-2.7407,-2.7267,-2.7267,-2.7266,-2.7266,0,-2.6693,-2.6753,-2.6799,-2.6866,-2.6907,-2.697,-2.6998,-2.7036,-2.7044,-2.7068,-2.7145,-2.7188,-2.725,-2.7272,-2.7281,-2.7365,-2.7354,-2.7343,-2.7315,-2.7378,-2.7407,-2.7419,-2.7269,-2.7269,-2.7268,-2.7268,0,0,-2.6787,-2.6863,-2.6879,-2.6909,-2.6969,-2.7016,-2.7078,-2.7139,-2.717,-2.7218,-2.727,-2.735,-2.7339,-2.7375,-2.7387,-2.7427,-2.7494,-2.741,-2.7412,-2.7424,-2.7587,-2.7595,-2.7609,-2.7493,-2.7495,-2.7497,-2.7583,0,-2.6873,-2.6985,-2.7003,-2.7101,-2.7156,-2.7158,-2.7211,-2.7253,-2.7276,-2.7325,-2.7351,-2.7407,-2.7389,-2.741,-2.7449,-2.7478,-2.7527,-2.7472,-2.7541,-2.7543,-2.7528,-2.7624,-2.7633,-2.7712,-2.7594,-2.7596,-2.7597,0,-2.699,-2.704,-2.7142,-2.7193,-2.7217,-2.7265,-2.7321,-2.7368,-2.7415,-2.7429,-2.7467,-2.7474,-2.7536,-2.7505,-2.7591,-2.7553,-2.7581,-2.7599,-2.7603,-2.761,-2.7574,-2.7633,-2.7738,-2.7749,-2.7615,-2.7614,-2.7613,0,-2.7047,-2.714,-2.7213,-2.7238,-2.7299,-2.7333,-2.736,-2.7404,-2.7439,-2.7487,-2.7509,-2.7564,-2.7594,-2.7636,-2.7657,-2.7632,-2.7741,-2.7711,-2.7753,-2.7753,-2.7777,-2.7775,-2.7887,-2.7795,-2.7795,-2.7795,-2.7795,0,-2.7141,-2.7204,-2.7239,-2.7284,-2.7353,-2.7373,-2.744,-2.7466,-2.7505,-2.7554,-2.7558,-2.7604,-2.7628,-2.7677,-2.7693,-2.7761,-2.7775,-2.7787,-2.7791,-2.7787,-2.7785,-2.7806,-2.7801,-2.7798,-2.7797,-2.7797,-2.7796,0,-2.7217,-2.7244,-2.7323,-2.7374,-2.7388,-2.7436,-2.7479,-2.7522,-2.7543,-2.7605,-2.762,-2.7655,-2.7712,-2.7736,-2.7807,-2.7817,-2.7895,-2.7895,-2.7879,-2.7881,-2.7921,-2.7917,-2.805,-2.8068,-2.7965,-2.7966,-2.7967,0,-2.7276,-2.7324,-2.7379,-2.7412,-2.744,-2.7494,-2.7528,-2.7549,-2.7584,-2.764,-2.7675,-2.7732,-2.7779,-2.787,-2.7901,-2.7954,-2.7955,-2.7998,-2.7963,-2.7957,-2.7955,-2.7952,-2.7956,-2.8004,-2.8005,-2.8006,-2.8007,0,-2.7378,-2.7387,-2.7438,-2.7492,-2.7533,-2.7577,-2.762,-2.7646,-2.7673,-2.7712,-2.7771,-2.7807,-2.7878,-2.7934,-2.7989,-2.8015,-2.8015,-2.8017,-2.803,-2.8027,-2.8015,-2.8021,-2.7897,-2.8015,-2.8014,-2.8013,-2.8013,-2.8012,-2.7447,-2.7488,-2.7533,-2.7588,-2.7622,-2.7661,-2.7703,-2.773,-2.7779,-2.7839,-2.7847,-2.7909,-2.7952,-2.8025,-2.8053,-2.8101,-2.809,-2.8109,-2.8113,-2.8117,-2.812,-2.8007,-2.8111,-2.8111,-2.8111,-2.8111,-2.8111,0,-2.7547,-2.7576,-2.7626,-2.7685,-2.7728,-2.7724,-2.777,-2.7806,-2.786,-2.7901,-2.7946,-2.8012,-2.8066,-2.8099,-2.8153,-2.8185,-2.8186,-2.8198,-2.8196,-2.8202,-2.8127,-2.811,-2.8196,-2.8196,-2.8196,-2.8196,-2.8196,-2.8196,-2.7605,-2.7675,-2.769,-2.7776,-2.7803,-2.7864,-2.7891,-2.7926,-2.7958,-2.8031,-2.8076,-2.8097,-2.8135,-2.8191,-2.8239,-2.8248,-2.8267,-2.828,-2.8287,-2.8217,-2.8208,-2.8199,-2.8184,-2.8284,-2.8284,-2.8359,-2.836,-2.836]}]]